{"data":{"norad_id":64734,"intl_designator":"2025-144L","name":"STARLINK-34591","alt_names":[],"object_type":"PAYLOAD","status":"ACTIVE","operator":null,"country":"US","launch_date":"2025-07-02","launch_site_code":"AFETR","launch_vehicle":null,"mission":null,"orbit_class":"UNKNOWN","rcs_meters":null,"size_class":null,"mass_kg":null,"dimensions":null,"purposes":["comms"],"wikipedia_slug":null,"has_3d_model":false,"image_url":null,"decayed_at":null,"tle_current":{"epoch":"2026-09-20T12:27:42.217632Z","epoch_age_seconds":126019,"freshness":"FRESH","line1":"1 64734U 25144L   26263.51923863  .00023374  00000+0  70031-3 0  9998","line2":"2 64734  53.1601 353.7724 0001567  85.8594 274.2588 15.34420061 69558","mean_motion":15.34420061,"eccentricity":0.0001567,"inclination_deg":53.1601,"raan_deg":353.7724,"arg_perigee_deg":85.8594,"mean_anomaly_deg":274.2588,"bstar":0.00070031,"rev_number":6955,"period_min":93.846531116227,"perigee_km":461.57166501464,"apogee_km":463.71556565949,"semimajor_km":6840.7806153371,"source":"CELESTRAK","updated_at":"2026-09-21T09:00:35.410875Z"}}}